CZ-6A DEB, 61318

Orbit data source: Space-Track

CZ-6A DEB, 61318 is space debris in LEO originally from a launch on Tue, 06 Aug 2024 UTC launched from the Taiyaun Space Center, China (TSC). Debris objects in space refer to the collection of defunct objects orbiting the Earth. Examples of debris include non-operational satellites, rocket bodies, and fragments generated from explosions, collisions, or faulty payload assembly.

Loading next visibility...
Identifier
61318, 2024-140UF
Orbit
LEO
Country
Flag of CNCN / PRC
Related business
Manufacturer
SAST
Mission
Spacecraft
Bus & Motor
Unknown
Mass
Unknown
Launch date (UTC)
2024-08-06 (2 years ago)
Launch vehicle
Unknown
Launch site
Taiyaun Space Center, China (TSC)
Object type
Payload
Rocket body
Debris
Shape & HBR
Unknown shape, 0.2 m
Radar Cross Section
Medium (>0.1 m² and <1 m²)

Expand to show TLE details & history
Last TLE update: 17 hours ago

TLE from 17 hours ago
0 CZ-6A DEB
1 61318U 24140UF  26171.26830498  .00001252  00000-0  55199-3 0  9999
2 61318  89.1209 283.8058 0041269 179.7281 180.3940 14.22374854 93851
Epoch: 2026-06-20T06:26Z
TLE epoch observation values (Epoch: 2026-06-20T06:26:21.550Z)
Latitude
-0.00005°
Longitude
-81.26936°
Altitude
850.09 km
Speed
7.412 km/s
True Right ascension
18h 55m 13s
True Declination
0° 00' 00"
Sunlit
Object was in full shadow at epoch
Visualization orbit readout
Latitude
Unknown
Longitude
Unknown
Altitude
Unknown
Speed
Unknown
Apparent Right ascension
Unknown
Apparent Declination
Unknown
Sunlit
N/A
Visualization observer readout
Local Sidereal Time
10:18:08
Azimuth
Unknown
Elevation
Unknown
Doppler factor
Unknown
Orbital elements
Apogee altitude
843.962 km
Perigee altitude
784.597 km
Semi-major axis
7,192.417 km
Eccentricity
0.00413
Inclination
89.1209°
RAAN
283.8058°
Arg. of periapsis
179.7281°
True anomaly
180.39076°
Mean anomaly
180.394°
Eccentric anomaly
180.39238°
Mean motion
3.5582 °/min
Orbital period
101.17 mins
BSTAR
0.00055199
Loading maneuver chart data...
Computing Atmospheric mass density...
Loading historical data...
Loading historical data...
Loading historical data...
Loading historical data...
Loading historical data...
Loading historical data...
Loading historical data...

Documentation

Showing up to 5 results
|